This is the latest recevied weather packets stored in our database for station/object CQ0XPG-11. If no packets are shown the sender has not sent any weather packets the latest 10 day(s).
| Time | Temp. | Humidity | Pressure | Rain* | Wind** | Luminosity | Snow |
|---|---|---|---|---|---|---|---|
| 1777971389 | 12.22° C | 100% | 1008 hPa | 0 mm | - | - | - |
| 1777971083 | 12.78° C | 100% | 1008 hPa | 0 mm | - | - | - |
| 1777970486 | 11.67° C | 100% | 1007.8 hPa | 0 mm | - | - | - |
| 1777970187 | 11.67° C | 100% | 1007.9 hPa | 0 mm | - | - | - |
| 1777969880 | 11.11° C | 100% | 1007.6 hPa | 0 mm | - | - | - |
| 1777969553 | 10.56° C | 100% | 1007.5 hPa | 0 mm | - | - | - |
| 1777969285 | 10.56° C | 100% | 1007.4 hPa | 0 mm | - | - | - |
| 1777968954 | 10.56° C | 100% | 1007.1 hPa | 0 mm | - | - | - |
| 1777968346 | 10° C | 100% | 1005.9 hPa | 0 mm | - | - | - |
| 1777967733 | 8.33° C | 100% | 1006 hPa | 0 mm | - | - | - |
| 1777967466 | 7.78° C | 100% | 1006 hPa | 0 mm | - | - | - |
| 1777967151 | 7.22° C | 100% | 1006 hPa | 0 mm | - | - | - |
| 1777966854 | 7.22° C | 100% | 1005.9 hPa | 0 mm | - | - | - |
| 1777966544 | 6.67° C | 100% | 1005.9 hPa | 0 mm | - | - | - |
| 1777966285 | 6.67° C | 100% | 1005.9 hPa | 0 mm | - | - | - |
| 1777965944 | 6.11° C | 100% | 1005.9 hPa | 0 mm | - | - | - |
| 1777965033 | 5° C | 100% | 1005.8 hPa | 0 mm | - | - | - |
| 1777964739 | 5° C | 100% | 1005.7 hPa | 0 mm | - | - | - |
| 1777964445 | 4.44° C | 100% | 1005.9 hPa | 0 mm | - | - | - |
| 1777964126 | 4.44° C | 100% | 1005.9 hPa | 0 mm | - | - | - |
| 1777963820 | 3.89° C | 100% | 1005.9 hPa | 0 mm | - | - | - |
| 1777963529 | 3.89° C | 100% | 1006.1 hPa | 0 mm | - | - | - |
| 1777963211 | 3.33° C | 100% | 1006 hPa | 0 mm | - | - | - |
| 1777962889 | 3.33° C | 100% | 1006 hPa | 0 mm | - | - | - |
| 1777962641 | 2.78° C | 100% | 1006 hPa | 0 mm | - | - | - |
* Rain since midnight (hover to see other rain measurements)
** Current wind speed in m/s (hover to see current wind gust speed)